Weather History for KBAF - April, 2014

Change the Weather History Date:

Sunday, April 13, 2014

  Actual Average Record
Temperature  
Mean Temperature 58 °F -  
Max Temperature 75 °F 57 °F - (-1)
Min Temperature 42 °F 34 °F - (-1)
Degree Days  
Heating Degree Days 8    
Growing Degree Days 8 (Base 50)    
Moisture  
Dew Point 45 °F    
Average Humidity 67    
Maximum Humidity 86    
Minimum Humidity 46    
Precipitation  
Precipitation 0.02 in - - ()
Sea Level Pressure  
Sea Level Pressure 30.10 in    
Wind  
Wind Speed 4 mph (South)    
Max Wind Speed 17 mph    
Max Gust Speed 24 mph    
Visibility 10 miles    
Events Rain    
Averages and records for this station are not official NWS values.
T = Trace of Precipitation, MM = Missing Value Source: NWS Daily Summary

Daily Weather History Graph

Daily Weather History Graph

Search for Another Location

Airport or City:

Trip Planner

Search our weather history database for the weather conditions in past years. The results will help you decide how hot, cold, wet, or windy it might be!

Date:

Astronomy

Apr. 13, 2014 Rise Set
Actual Time 6:13 AM EDT 7:29 PM EDT
Civil Twilight 5:44 AM EDT 7:58 PM EDT
Nautical Twilight 5:09 AM EDT 8:33 PM EDT
Astronomical Twilight 4:33 AM EDT 9:10 PM EDT
Moon 6:03 PM EDT (4/13) 5:12 AM EDT (4/13)
Length of Visible Light 14h 14m
Length of Day
13h 16m
Waxing Gibbous, 97% of the Moon is Illuminated
Apr 13
Waxing Gibbous
Apr 15
Full
Apr 22
Last Quarter
Apr 29
New
May 6
First Quarter

Hourly Weather History & Observations

Time (EDT) Temp. Windchill Dew Point Humidity Pressure Visibility Wind Dir Wind Speed Gust Speed Precip Events Conditions
12:53 AM 46.0 °F - 37.0 °F 71% 30.22 in 10.0 mi Calm Calm - N/A   Clear
1:53 AM 45.0 °F - 36.0 °F 71% 30.21 in 10.0 mi Calm Calm - N/A   Clear
2:53 AM 42.1 °F 40.2 °F 37.0 °F 82% 30.20 in 10.0 mi South 3.5 mph - N/A   Clear
3:53 AM 43.0 °F - 37.0 °F 80% 30.20 in 10.0 mi Calm Calm - N/A   Scattered Clouds
4:53 AM 42.1 °F - 36.0 °F 79% 30.20 in 10.0 mi Calm Calm - N/A   Partly Cloudy
5:53 AM 43.0 °F 40.3 °F 37.0 °F 80% 30.19 in 10.0 mi West 4.6 mph - N/A   Scattered Clouds
6:53 AM 44.1 °F - 37.9 °F 79% 30.19 in 10.0 mi Calm Calm - N/A   Overcast
7:53 AM 46.0 °F - 39.9 °F 79% 30.19 in 10.0 mi Calm Calm - 0.00 in   Overcast
8:53 AM 48.0 °F - 39.0 °F 71% 30.19 in 10.0 mi SW 3.5 mph - 0.00 in Rain Light Rain
9:53 AM 48.9 °F - 44.1 °F 83% 30.20 in 10.0 mi North 6.9 mph - 0.02 in   Overcast
10:53 AM 50.0 °F - 46.0 °F 86% 30.18 in 10.0 mi North 4.6 mph - N/A   Overcast
11:53 AM 54.0 °F - 46.0 °F 75% 30.15 in 10.0 mi North 3.5 mph - N/A   Overcast
12:53 PM 57.9 °F - 46.0 °F 65% 30.13 in 10.0 mi NNW 5.8 mph - N/A   Overcast
1:53 PM 64.9 °F - 46.9 °F 52% 30.09 in 10.0 mi NNW 5.8 mph - N/A   Mostly Cloudy
2:53 PM 71.1 °F - 51.1 °F 49% 30.04 in 10.0 mi SSE 9.2 mph - N/A   Scattered Clouds
3:53 PM 73.9 °F - 52.0 °F 46% 29.99 in 10.0 mi SSE 13.8 mph 23.0 mph N/A   Clear
4:53 PM 73.9 °F - 52.0 °F 46% 29.98 in 10.0 mi South 17.3 mph - N/A   Clear
5:53 PM 73.9 °F - 52.0 °F 46% 29.96 in 10.0 mi South 13.8 mph 23.0 mph N/A   Clear
6:53 PM 70.0 °F - 51.1 °F 51% 29.96 in 10.0 mi South 16.1 mph 24.2 mph N/A   Clear
7:53 PM 66.0 °F - 51.1 °F 59% 29.99 in 10.0 mi South 11.5 mph - N/A   Clear
8:53 PM 64.9 °F - 51.1 °F 61% 30.00 in 10.0 mi SSE 9.2 mph - N/A   Clear
9:53 PM 63.0 °F - 48.9 °F 60% 30.00 in 10.0 mi South 10.4 mph - N/A   Clear
10:53 PM 61.0 °F - 48.0 °F 62% 29.99 in 10.0 mi South 11.5 mph - N/A   Clear
11:53 PM 61.0 °F - 48.9 °F 64% 30.00 in 10.0 mi South 8.1 mph - N/A   Clear